{"data":{"norad_id":53275,"intl_designator":"2022-086AK","name":"STARLINK-4179","alt_names":[],"object_type":"PAYLOAD","status":"ACTIVE","operator":null,"country":"US","launch_date":"2022-07-24","launch_site_code":"AFETR","launch_vehicle":null,"mission":null,"orbit_class":"UNKNOWN","rcs_meters":null,"size_class":null,"mass_kg":null,"dimensions":null,"purposes":["comms"],"wikipedia_slug":null,"has_3d_model":false,"image_url":null,"decayed_at":null,"tle_current":{"epoch":"2026-09-20T04:00:03.000096Z","epoch_age_seconds":104257,"freshness":"FRESH","line1":"1 53275U 22086AK  26263.16670139  .00054969  00000+0  16281-2 0  9994","line2":"2 53275  53.1597  15.6145 0001523  93.8236 267.7293 15.34361331  5762","mean_motion":15.34361331,"eccentricity":0.0001523,"inclination_deg":53.1597,"raan_deg":15.6145,"arg_perigee_deg":93.8236,"mean_anomaly_deg":267.7293,"bstar":0.0016281,"rev_number":576,"period_min":93.850123234108,"perigee_km":461.77629756484,"apogee_km":463.86005251115,"semimajor_km":6840.955175038,"source":"CELESTRAK","updated_at":"2026-09-20T09:00:40.218725Z"}}}